#timestamp,LO_Frequency,Hit,StdDev 
1575666015.2,286047002.8,P
1575666035.9,286047002.4,N
1575666055.7,286047002.5,N
1575666075.6,286047004.3,Y
1575666095.4,286047002.4,P
1575666115.3,286047000.4,N
1575666135.1,286046999.0,N
1575666136.0,286046999.0,N
1575666155.8,286046998.2,N
1575666175.7,286046999.3,N
1575666195.5,286046998.7,N
1575666215.3,286046996.9,N
1575666235.2,286046997.1,N
1575666255.0,286046999.1,N
1575666255.9,286046999.1,N
1575666275.8,286046996.7,N
1575666295.6,286047000.7,N
1575666315.4,286046999.0,N
1575666335.3,286046998.8,N
1575666355.1,286046999.2,N
1575666375.9,286046999.4,N
1575666395.7,286047000.7,N
1575666415.5,286046999.6,N
1575666435.4,286046997.0,N
1575666455.2,286046996.8,N
1575666475.0,286046999.5,N
1575666475.9,286046999.5,N
1575666495.8,286046997.2,N
1575666515.6,286046994.9,Y
1575666535.5,286046996.8,P
1575666555.3,286046996.7,P
1575666575.1,286046996.5,P
1575666595.9,286046997.8,N
1575666615.7,286046996.5,Y
1575666635.6,286047000.1,P
1575666655.4,286047002.6,N
1575666675.2,286046999.8,N
1575666695.1,286046999.7,N
1575666696.0,286046999.7,N
1575666715.8,286047003.2,N
1575666735.6,286047004.4,N
1575666755.5,286047002.0,N
1575666775.3,286047002.3,N
1575666795.2,286047000.3,N
1575666815.9,286047000.0,N
1575666835.7,286047001.0,N
1575666855.6,286047000.8,N
1575666875.4,286046999.1,N
1575666895.3,286046999.6,N
1575666915.1,286046999.2,N
1575666916.0,286046999.2,N
1575666935.8,286046999.3,N
1575666955.7,286046998.7,N
1575666975.5,286046999.3,N
1575666995.3,286046997.3,N
1575667015.2,286046999.4,N
1575667035.0,286046999.3,N
1575667035.9,286046999.3,N
1575667055.8,286046998.1,N
1575667075.6,286047000.2,N
1575667095.4,286047001.2,N
1575667115.3,286047000.3,N
1575667135.1,286047001.0,N
1575667155.9,286046998.2,N
1575667175.7,286046999.2,N
1575667195.5,286046996.6,N
1575667215.4,286046997.4,N
1575667235.2,286046997.5,N
1575667255.0,286046997.4,N
1575667255.9,286046997.4,N
1575667275.8,286046995.4,N
1575667295.6,286046997.2,N
1575667315.5,286046996.8,N
1575667335.3,286046997.7,N
1575667355.1,286046995.3,Y
1575667375.9,286046997.0,P
1575667395.7,286046998.8,N
1575667415.5,286047001.0,N
1575667435.4,286047002.2,N
1575667455.2,286047000.1,N
1575667475.1,286047001.2,N
1575667476.0,286047001.2,N
1575667495.8,286046998.2,N
1575667515.6,286047001.0,N
1575667535.5,286047000.8,N
1575667555.3,286046998.7,N
1575667575.2,286046996.7,N
1575667595.9,286046997.6,N
1575667615.7,286046997.6,N
1575667635.6,286046997.1,N
1575667655.4,286046997.3,N
1575667675.2,286046998.0,N
1575667695.1,286046997.7,N
1575667696.0,286046997.7,N
1575667715.8,286046999.4,N
1575667735.7,286046997.8,N
1575667755.5,286046994.9,Y
1575667775.3,286046999.5,P
1575667795.2,286046997.0,P
1575667815.0,286046999.4,N
1575667815.9,286046999.4,N
1575667835.8,286046999.5,N
1575667855.6,286046999.5,N
1575667875.4,286046997.2,Y
1575667895.3,286046998.6,P
1575667915.1,286046998.6,P
1575667935.9,286046998.7,P
1575667955.7,286047000.6,Y
1575667975.5,286047002.3,P
1575667995.4,286047000.2,N
1575668015.2,286047000.4,N
1575668035.0,286047002.4,N
1575668036.0,286047002.4,N
1575668055.8,286047002.6,N
1575668075.6,286046999.9,N
1575668095.5,286046998.3,N
1575668115.3,286046999.4,N
1575668135.1,286046999.0,N
1575668155.9,286046999.2,N
1575668175.7,286047001.0,N
1575668195.6,286047000.2,N
1575668215.4,286047001.1,N
1575668235.2,286047000.6,N
1575668255.1,286046999.9,N
1575668256.0,286046999.9,N
1575668275.8,286047002.5,N
1575668295.6,286047001.6,N
1575668315.5,286047002.8,N
1575668335.3,286047001.7,N
1575668355.2,286047002.2,N
1575668375.9,286047002.8,N
1575668395.7,286047002.7,N
1575668415.6,286047000.0,N
1575668435.4,286047000.7,N
1575668455.3,286046999.0,N
1575668475.1,286046998.2,N
1575668476.0,286046998.2,N
1575668495.8,286046999.8,N
1575668515.7,286046999.9,N
1575668535.5,286046998.2,N
1575668555.3,286047000.6,N
1575668575.2,286046998.4,N
1575668595.0,286046998.3,N
1575668595.9,286046998.3,N
1575668615.8,286047001.2,N
1575668635.6,286047002.8,N
1575668655.4,286047004.0,N
1575668675.3,286047002.1,N
1575668695.1,286047002.5,N
1575668715.8,286047003.7,N
1575668735.7,286047002.3,N
1575668755.5,286047004.4,N
1575668775.4,286047004.1,N
1575668795.2,286047006.0,Y
1575668815.0,286047001.6,P
1575668815.9,286047001.6,P
1575668835.8,286047003.6,P
1575668855.6,286047002.6,N
1575668875.5,286047000.1,N
1575668895.3,286046999.9,N
1575668915.1,286047001.0,N
1575668935.9,286047001.0,N
1575668955.7,286047001.1,N
1575668975.5,286046998.3,N
1575668995.4,286046999.9,N
1575669015.2,286047001.2,N
1575669035.1,286046999.8,N
1575669036.0,286046999.8,N
1575669055.8,286047002.3,N
1575669075.6,286047000.3,N
1575669095.5,286046999.7,N
1575669115.3,286047001.7,N
1575669135.1,286047001.6,N
1575669155.9,286047000.4,N
1575669175.7,286047001.2,N
1575669195.6,286046998.1,N
1575669215.4,286046998.1,N
1575669235.2,286046998.1,N
1575669255.1,286047002.0,N
1575669256.0,286047002.0,N
1575669275.8,286047002.4,N
1575669295.6,286047002.8,N
1575669315.5,286047002.7,N
1575669335.3,286047001.7,N
1575669355.2,286047002.1,N
1575669375.9,286047001.3,N
1575669395.7,286047004.4,N
1575669415.6,286047003.5,N
1575669435.4,286047004.1,N
1575669455.2,286047002.5,N
1575669475.1,286047003.7,N
1575669476.0,286047003.7,N
1575669495.8,286047003.9,N
1575669515.7,286047004.0,N
1575669535.5,286047004.4,N
1575669555.3,286047001.4,N
1575669575.2,286047003.7,N
1575669595.0,286047004.2,N
1575669595.9,286047004.2,N
